Location: Unspecified
(50.1500°N, 0.0000°E)
Time: 19:10:49
(UTC+00:00)

NOAA 18 - Visible Passes

Search period start: 04 April 2026 00:00
Search period end: 14 April 2026 00:00
Orbit: 836 x 857 km, 98.8° (Epoch: 29 March)

Date Brightness Start Highest point End Pass type
(mag) Time Alt. Az. Time Alt. Az. Time Alt. Az.
4 Apr 6.0 21:07:36 33° E 21:08:21 34° ENE 21:13:14 10° N visible
4 Apr 6.1 22:49:31 42° W 22:49:31 42° W 22:54:06 10° NNW visible
5 Apr 6.3 20:54:20 26° E 20:55:28 28° ENE 21:00:04 10° N visible
5 Apr 5.7 22:36:14 54° W 22:36:14 54° W 22:41:11 10° NNW visible
6 Apr 6.5 20:41:03 21° E 20:42:36 23° ENE 20:46:49 10° N visible
6 Apr 5.3 22:22:58 69° W 22:22:58 69° W 22:28:13 10° NNW visible
7 Apr 7.6 00:04:52 11° WNW 00:04:52 11° WNW 00:06:07 10° WNW visible
7 Apr 6.8 20:27:47 16° E 20:29:46 19° NE 20:33:33 10° N visible
7 Apr 5.1 22:09:41 86° WSW 22:09:42 87° WSW 22:15:14 10° NNW visible
7 Apr 7.4 23:51:36 15° W 23:51:36 15° W 23:54:10 10° NW visible
8 Apr 7.0 20:14:30 12° E 20:16:56 16° NE 20:20:09 10° NNE visible
8 Apr 5.0 21:56:25 74° ESE 21:56:42 76° ENE 22:02:12 10° NNW visible
8 Apr 7.1 23:38:19 19° W 23:38:19 19° W 23:41:45 10° NW visible
9 Apr 7.2 20:01:40 10° ENE 20:04:09 13° NE 20:06:37 10° NNE visible
9 Apr 5.2 21:43:08 58° E 21:43:43 61° ENE 21:49:08 10° N visible
9 Apr 6.8 23:25:03 24° W 23:25:03 24° W 23:29:08 10° NW visible
10 Apr 7.3 19:50:04 10° ENE 19:51:23 11° NE 19:52:41 10° NNE visible
10 Apr 5.5 21:29:52 45° E 21:30:45 49° ENE 21:36:03 10° N visible
10 Apr 6.5 23:11:46 30° W 23:11:46 30° W 23:16:24 10° NNW visible
11 Apr 5.8 21:16:35 35° E 21:17:50 40° ENE 21:22:56 10° N visible
11 Apr 6.1 22:58:30 37° W 22:58:30 37° W 23:03:34 10° NNW visible
12 Apr 6.2 21:03:19 27° E 21:04:55 33° ENE 21:09:46 10° N visible
12 Apr 5.8 22:45:14 47° WSW 22:45:23 47° W 22:50:42 10° NNW visible
13 Apr 6.4 20:50:03 22° E 20:52:02 27° ENE 20:56:34 10° N visible
13 Apr 5.4 22:31:57 58° WSW 22:32:19 59° WSW 22:37:46 10° NNW visible
